Hourly Data Report for November 23, 2012

BAGOTVILLE A
QUEBEC

48°20'00.000" N
71°00'00.000" W
159.10 m
7060400
71727
YBG

Download Data

Hourly Data (November 2012)
Hourly Data Report for November 23, 2012
TIME
LST
Temp Definition
°C
Dew Point Definition
°C
Rel Hum Definition
%
Precip. Amount Definition
mm

Wind Dir Definition
10's deg

Wind Spd Definition
km/h
Visibility Definition
km
Stn Press Definition
kPa
Hmdx Definition


Wind Chill Definition


Weather Definition


00:00 1.8 -0.1 87   11 7 24.1 99.15     Mainly Clear
01:00 0.8 -0.7 90   11 13 24.1 99.08     Mainly Clear
02:00 1.5 -0.7 85   12 4 24.1 99.09     Mainly Clear
03:00 0.6 -0.9 90   11 7 24.1 99.06     Mainly Clear
04:00 0.6 -0.9 90   11 11 24.1 99.00     Clear
05:00 0.4 -0.6 93   10 4 24.1 98.97     Clear
06:00 0.4 -1.0 90   10 9 24.1 98.90     Mainly Clear
07:00 0.3 -0.4 95   11 13 40.2 98.80     Mostly Cloudy
08:00 0.4 -0.6 93   12 9 40.2 98.75     Cloudy
09:00 1.6 0.6 93   10 17 40.2 98.66     Cloudy
10:00 3.0 0.7 85   12 7 40.2 98.61     Cloudy
11:00 4.4 1.0 79   10 9 40.2 98.48     Cloudy
12:00 4.4 0.7 77   9 20 40.2 98.38     Cloudy
13:00 5.3 0.7 72   9 20 40.2 98.27     Cloudy
14:00 5.9 0.4 68   11 20 40.2 98.13     Cloudy
15:00 7.1 0.0 61   9 15 40.2 98.05     Cloudy
16:00 6.9 -0.5 59   12 13 40.2 98.06     Cloudy
17:00 6.2 -0.9 60   11 9 24.1 98.04     Cloudy
18:00 8.1 -1.2 52   14 4 24.1 98.00     Rain
19:00 8.5 1.3 60   20 11 24.1 98.00     Rain
20:00 8.6 1.7 62   20 19 24.1 98.00     Cloudy
21:00 8.4 2.2 65   20 20 24.1 97.92     Rain
22:00 7.6 2.4 70   21 9 24.1 97.90     Cloudy
23:00 5.3 2.9 84   17 4 24.1 97.88     Cloudy

Notes on Data Quality.

Legend

  • E = Estimated
  • M = Missing
  • NA = Not Available*
  • [empty] = Indicates an unobserved value
Date modified: